| time (UTC) | temp F | wind direction | speed MPH | gust MPH | rain 1hr in | rain 24hr in | rain mn in | humidity % | barometer mb |
| 20260831141508 | 58 | 288 | 5.0 | 12.0 | 0.00 | 0.00 | 0.00 | 57 | 1011.6 |
| 20260831140004 | 56 | 295 | 2.0 | 7.0 | 0.00 | 0.00 | 0.00 | 59 | 1011.4 |
| 20260831134505 | 56 | 277 | 3.0 | 9.0 | 0.00 | 0.00 | 0.00 | 59 | 1011.3 |
| 20260831133059 | 55 | 287 | 4.0 | 8.0 | 0.00 | 0.00 | 0.00 | 62 | 1011.0 |
| 20260831131600 | 53 | 287 | 5.0 | 12.0 | 0.00 | 0.00 | 0.00 | 64 | 1010.8 |
| 20260831124557 | 52 | 296 | 5.0 | 12.0 | 0.00 | 0.00 | 0.00 | 64 | 1010.4 |
| 20260831123051 | 53 | 290 | 5.0 | 12.0 | 0.00 | 0.00 | 0.00 | 63 | 1010.1 |
| 20260831121552 | 53 | 298 | 6.0 | 14.0 | 0.00 | 0.00 | 0.00 | 62 | 1010.0 |
| 20260831120056 | 53 | 303 | 7.0 | 14.0 | 0.00 | 0.00 | 0.00 | 63 | 1009.9 |
| 20260831114549 | 53 | 288 | 9.0 | 15.0 | 0.00 | 0.00 | 0.00 | 63 | 1010.0 |
| 20260831113107 | 54 | 260 | 6.0 | 14.0 | 0.00 | 0.00 | 0.00 | 62 | 1009.9 |
| 20260831111546 | 54 | 267 | 7.0 | 14.0 | 0.00 | 0.00 | 0.00 | 61 | 1009.7 |
| 20260831110046 | 54 | 282 | 8.0 | 17.0 | 0.00 | 0.00 | 0.00 | 62 | 1009.5 |
| 20260831104544 | 53 | 255 | 7.0 | 16.0 | 0.00 | 0.00 | 0.00 | 63 | 1009.5 |
| 20260831103048 | 52 | 302 | 8.0 | 14.0 | 0.00 | 0.00 | 0.00 | 65 | 1009.2 |
| 20260831101545 | 52 | 254 | 5.0 | 12.0 | 0.00 | 0.00 | 0.00 | 66 | 1009.2 |
| 20260831100040 | 51 | 284 | 5.0 | 12.0 | 0.00 | 0.00 | 0.00 | 67 | 1009.0 |
| 20260831094549 | 51 | 260 | 5.0 | 12.0 | 0.00 | 0.00 | 0.00 | 68 | 1008.9 |
| 20260831093035 | 51 | 231 | 4.0 | 8.0 | 0.00 | 0.00 | 0.00 | 68 | 1009.0 |
| 20260831091543 | 51 | 271 | 4.0 | 8.0 | 0.00 | 0.00 | 0.00 | 68 | 1009.1 |
| 20260831090038 | 51 | 256 | 4.0 | 12.0 | 0.00 | 0.00 | 0.00 | 67 | 1009.0 |
| 20260831084532 | 50 | 228 | 4.0 | 9.0 | 0.00 | 0.01 | 0.00 | 69 | 1008.8 |
| 20260831083024 | 51 | 239 | 4.0 | 9.0 | 0.00 | 0.01 | 0.00 | 68 | 1008.7 |
| 20260831081523 | 52 | 258 | 4.0 | 11.0 | 0.00 | 0.01 | 0.00 | 67 | 1008.4 |
| 20260831080030 | 52 | 257 | 6.0 | 14.0 | 0.00 | 0.01 | 0.00 | 67 | 1008.3 |
| 20260831074517 | 51 | 297 | 6.0 | 14.0 | 0.00 | 0.02 | 0.00 | 68 | 1008.2 |
| 20260831073015 | 52 | 263 | 4.0 | 11.0 | 0.00 | 0.02 | 0.00 | 67 | 1008.2 |
| 20260831071512 | 53 | 261 | 4.0 | 11.0 | 0.00 | 0.02 | 0.00 | 65 | 1008.2 |
| 20260831070012 | 53 | 261 | 5.0 | 11.0 | 0.00 | 0.02 | 0.00 | 64 | 1008.2 |
| 20260831064506 | 54 | 297 | 5.0 | 14.0 | 0.00 | 0.02 | 0.00 | 63 | 1008.2 |
| 20260831063004 | 55 | 286 | 6.0 | 14.0 | 0.00 | 0.02 | 0.00 | 61 | 1008.0 |
| 20260831061605 | 55 | 223 | 8.0 | 17.0 | 0.00 | 0.02 | 0.00 | 60 | 1008.1 |
| 20260831060057 | 55 | 277 | 5.0 | 12.0 | 0.00 | 0.02 | 0.00 | 60 | 1007.9 |
| 20260831054554 | 56 | 270 | 5.0 | 12.0 | 0.00 | 0.02 | 0.02 | 60 | 1007.9 |
| 20260831053053 | 56 | 265 | 4.0 | 14.0 | 0.00 | 0.02 | 0.02 | 59 | 1007.9 |
| 20260831051559 | 56 | 284 | 7.0 | 15.0 | 0.00 | 0.02 | 0.02 | 60 | 1007.9 |
| 20260831050050 | 56 | 284 | 4.0 | 14.0 | 0.00 | 0.02 | 0.02 | 60 | 1008.0 |
| 20260831044551 | 57 | 242 | 7.0 | 17.0 | 0.00 | 0.02 | 0.02 | 58 | 1008.2 |
| 20260831043046 | 58 | 261 | 7.0 | 16.0 | 0.00 | 0.02 | 0.02 | 54 | 1008.1 |
| 20260831041551 | 59 | 275 | 7.0 | 16.0 | 0.00 | 0.02 | 0.02 | 48 | 1007.5 |
| 20260831040046 | 60 | 290 | 6.0 | 15.0 | 0.00 | 0.02 | 0.02 | 48 | 1007.7 |
| 20260831034549 | 60 | 286 | 3.0 | 14.0 | 0.00 | 0.02 | 0.02 | 48 | 1007.9 |
| 20260831033044 | 60 | 323 | 7.0 | 17.0 | 0.00 | 0.02 | 0.02 | 47 | 1007.9 |
| 20260831031544 | 60 | 267 | 7.0 | 13.0 | 0.00 | 0.02 | 0.02 | 48 | 1007.7 |
| 20260831030044 | 60 | 236 | 7.0 | 15.0 | 0.00 | 0.02 | 0.02 | 48 | 1007.6 |
| 20260831024544 | 60 | 270 | 5.0 | 13.0 | 0.00 | 0.02 | 0.02 | 47 | 1007.4 |
| 20260831023042 | 60 | 330 | 8.0 | 19.0 | 0.00 | 0.02 | 0.02 | 46 | 1007.2 |
| 20260831021542 | 61 | 269 | 6.0 | 19.0 | 0.00 | 0.02 | 0.02 | 46 | 1007.0 |
| 20260831020047 | 60 | 239 | 7.0 | 16.0 | 0.00 | 0.02 | 0.02 | 48 | 1007.1 |
| 20260831014542 | 60 | 261 | 5.0 | 11.0 | 0.00 | 0.02 | 0.02 | 51 | 1006.8 |
| 20260831013046 | 61 | 266 | 6.0 | 13.0 | 0.00 | 0.02 | 0.02 | 49 | 1006.8 |
| 20260831011545 | 61 | 261 | 5.0 | 13.0 | 0.00 | 0.02 | 0.02 | 51 | 1007.0 |
| 20260831010043 | 62 | 323 | 8.0 | 17.0 | 0.00 | 0.02 | 0.02 | 49 | 1007.0 |
| 20260831004540 | 62 | 273 | 10.0 | 22.0 | 0.00 | 0.02 | 0.02 | 47 | 1007.1 |
| 20260831003041 | 63 | 263 | 10.0 | 18.0 | 0.00 | 0.02 | 0.02 | 45 | 1007.0 |
| 20260831001538 | 64 | 284 | 12.0 | 22.0 | 0.00 | 0.02 | 0.02 | 41 | 1006.8 |
| 20260831000038 | 64 | 288 | 10.0 | 23.0 | 0.00 | 0.02 | 0.02 | 39 | 1006.5 |
| 20260830234542 | 67 | 273 | 9.0 | 21.0 | 0.00 | 0.02 | 0.02 | 37 | 1006.4 |
| 20260830233037 | 67 | 241 | 10.0 | 22.0 | 0.00 | 0.02 | 0.02 | 37 | 1006.2 |
| 20260830231537 | 65 | 261 | 7.0 | 14.0 | 0.00 | 0.02 | 0.02 | 41 | 1006.3 |
| 20260830230036 | 63 | 242 | 9.0 | 17.0 | 0.00 | 0.02 | 0.02 | 42 | 1006.6 |
| 20260830224536 | 63 | 256 | 11.0 | 21.0 | 0.00 | 0.02 | 0.02 | 42 | 1006.7 |
| 20260830223036 | 64 | 201 | 10.0 | 18.0 | 0.00 | 0.02 | 0.02 | 41 | 1006.8 |
| 20260830221544 | 64 | 217 | 9.0 | 18.0 | 0.00 | 0.02 | 0.02 | 42 | 1006.8 |
| 20260830220035 | 64 | 294 | 8.0 | 19.0 | 0.00 | 0.02 | 0.02 | 42 | 1006.9 |
| 20260830214534 | 66 | 256 | 10.0 | 23.0 | 0.00 | 0.02 | 0.02 | 39 | 1006.8 |
| 20260830213033 | 66 | 261 | 10.0 | 24.0 | 0.00 | 0.02 | 0.02 | 38 | 1006.7 |
| 20260830211533 | 68 | 246 | 7.0 | 18.0 | 0.00 | 0.02 | 0.02 | 36 | 1006.7 |
| 20260830210035 | 68 | 246 | 11.0 | 22.0 | 0.00 | 0.02 | 0.02 | 36 | 1006.6 |
| 20260830204532 | 65 | 229 | 10.0 | 23.0 | 0.00 | 0.02 | 0.02 | 40 | 1006.7 |
| 20260830203031 | 64 | 302 | 10.0 | 18.0 | 0.00 | 0.02 | 0.02 | 39 | 1006.5 |
| 20260830201531 | 65 | 263 | 8.0 | 20.0 | 0.00 | 0.02 | 0.02 | 37 | 1006.5 |
| 20260830200042 | 65 | 223 | 7.0 | 22.0 | 0.00 | 0.02 | 0.02 | 39 | 1006.5 |
| 20260830194532 | 66 | 304 | 8.0 | 16.0 | 0.00 | 0.02 | 0.02 | 36 | 1006.4 |
| 20260830193030 | 67 | 247 | 6.0 | 16.0 | 0.00 | 0.02 | 0.02 | 35 | 1006.4 |
| 20260830191529 | 68 | 330 | 5.0 | 13.0 | 0.00 | 0.02 | 0.02 | 33 | 1006.4 |
| 20260830190042 | 69 | 244 | 6.0 | 15.0 | 0.00 | 0.02 | 0.02 | 33 | 1006.3 |
| 20260830184526 | 67 | 237 | 9.0 | 18.0 | 0.00 | 0.02 | 0.02 | 35 | 1006.6 |
| 20260830183023 | 67 | 224 | 7.0 | 19.0 | 0.00 | 0.02 | 0.02 | 38 | 1006.5 |
| 20260830181521 | 66 | 232 | 10.0 | 19.0 | 0.00 | 0.02 | 0.02 | 40 | 1006.6 |
| 20260830180021 | 65 | 248 | 6.0 | 14.0 | 0.00 | 0.02 | 0.02 | 44 | 1006.8 |
| 20260830174518 | 64 | 221 | 10.0 | 17.0 | 0.00 | 0.02 | 0.02 | 50 | 1006.9 |
| 20260830173017 | 63 | 215 | 5.0 | 13.0 | 0.00 | 0.02 | 0.02 | 51 | 1006.8 |
| 20260830171512 | 62 | 265 | 3.0 | 8.0 | 0.00 | 0.02 | 0.02 | 46 | 1007.0 |
| 20260830170010 | 62 | 262 | 3.0 | 10.0 | 0.00 | 0.02 | 0.02 | 46 | 1007.0 |
| 20260830164508 | 61 | 261 | 4.0 | 8.0 | 0.00 | 0.02 | 0.02 | 46 | 1007.0 |
| 20260830163007 | 61 | 241 | 4.0 | 9.0 | 0.00 | 0.02 | 0.02 | 47 | 1006.9 |
| 20260830161503 | 60 | 275 | 2.0 | 8.0 | 0.00 | 0.02 | 0.02 | 51 | 1006.9 |
| 20260830160001 | 59 | 240 | 2.0 | 5.0 | 0.00 | 0.02 | 0.02 | 53 | 1006.8 |
| 20260830154501 | 59 | 260 | 1.0 | 5.0 | 0.00 | 0.02 | 0.02 | 53 | 1006.8 |
| 20260830153058 | 59 | 292 | 1.0 | 5.0 | 0.00 | 0.02 | 0.02 | 56 | 1006.8 |
| 20260830151556 | 58 | 290 | 0.0 | 0.0 | 0.00 | 0.02 | 0.02 | 65 | 1007.0 |
| 20260830150104 | 58 | 238 | 0.0 | 3.0 | 0.00 | 0.02 | 0.02 | 74 | 1007.2 |
| 20260830144555 | 57 | 221 | 0.0 | 5.0 | 0.00 | 0.02 | 0.02 | 69 | 1007.3 |
| 20260830143105 | 57 | 173 | 1.0 | 4.0 | 0.00 | 0.02 | 0.02 | 65 | 1007.2 |